Showing default

COSMOS 84, 1574

Orbit data source: Space-Track

COSMOS 84, 1574 is a payload satellite owned by OKB-10 (CIS) in LEO that was launched on Fri, 03 Sep 1965 UTC via a KOSMOS 65S3 launch vehicle from the Tyuratam Missile And Space Complex (TTMTR). Payload-class satellites include a variety of spacecraft equipped with specific instruments for various scientific and technological missions. These include communications satellites like Starlink; space stations such as the ISS; scientific satellites like the Hubble; Earth observation satellites from companies like Planet Labs, Umbra, and HawkEye 360; GPS; miniature CubeSats for education and research; and military/defense satellites.

Loading next visibility...
Identifier
1574, 1965-070E
Orbit
LEO
Last TLE update
7 hours ago
Origin
Manufacturer
OKB-10
Mission
Defense Communications
Bus & Motor
STRELA-1 11F610, Unknown motor
Mass
50 kg wet, 50 kg dry
Launch date (UTC)
1965-09-03 (60 years ago)
Launch vehicle
KOSMOS 65S3
Launch site
Tyuratam Missile And Space Complex (TTMTR)
Object type
Payload
Rocket body
Debris
Shape & HBR
Poly, 0.8 m
Radar Cross Section
0.731 m², Medium (>0.1 m² and < 1m²)

Expand to show TLE details & history

TLE from 7 hours ago
0 COSMOS 84
1 01574U 65070E   25188.54757726 -.00000074  00000-0  14028-3 0  9992
2 01574  56.0520 254.3762 0064978 141.0163 334.4943 12.37032592703785
Epoch: 2025-07-07T13:08Z
TLE epoch observation values (Epoch: 2025-07-07T13:08:30.675Z)
Latitude
48.77357°
Longitude
-98.36863°
Altitude
1,478.882 km
Speed
7.15 km/s
True Right ascension
01h 38m 03s
True Declination
48° 37' 07"
Sunlit
Object was in daylight at epoch
Visualization orbit readout
Latitude
24.65567°
Longitude
148.60008°
Altitude
1,538.713 km
Speed
7.091 km/s
Apparent Right ascension
19h 03m 58s
Apparent Declination
-3° 53' 40"
Sunlit
Object is in full shadow
Visualization observer readout
Local Sidereal Time
08:30:22
Azimuth
34.069° NE
Elevation
-49.03°
Doppler factor
1
Orbital elements
Apogee altitude
1,570.347 km
Perigee altitude
1,467.718 km
Semi-major axis
7,897.17 km
Eccentricity
0.0065
Inclination
56.052°
RAAN
254.3762°
Arg. of periapsis
141.0163°
True anomaly
Unknown
Mean anomaly
334.4943°
Eccentric anomaly
Unknown
Mean motion
3.09269 °/min
Orbital period
116.4 mins
BSTAR
0.00014028
Loading maneuver chart data...
Loading SW <> Apogee altitude chart data...
Loading historical data...
Loading historical data...
Loading historical data...
Loading historical data...
Loading historical data...
Loading historical data...
Loading historical data...
Other satellites on launch #70 in the year 1965 (1965-09-03 UTC)

COSMOS 84 Visibility forecast

Observer location: undefined°, undefined°

Span
Click to sort rows by Start time (UTC) header in descending order
Start Az.
Max El. time (UTC)
Max El. Az.
Max El.
End time (UTC)
End Az.
16 mins2025-07-08 06:05:37.585Z199.478° SSW2025-07-08 06:13:37.585Z115.999° SE40.026°2025-07-08 06:21:37.585Z51.999° ENE
16 mins2025-07-08 08:07:37.585Z256.779° W2025-07-08 08:14:37.585Z317.885° NNW37.348°2025-07-08 08:23:37.585Z41.574° NE
13 mins2025-07-08 10:12:37.585Z302.412° NW2025-07-08 10:18:37.585Z350.096° N25.579°2025-07-08 10:25:37.585Z47.797° ENE
14 mins2025-07-08 12:16:37.585Z322.426° NNW2025-07-08 12:23:37.585Z26.278° NE31.124°2025-07-08 12:30:37.585Z85.438° E
16 mins2025-07-08 14:18:37.585Z314.03° NW2025-07-08 14:25:37.585Z297.631° NW44.797°2025-07-08 14:34:37.585Z138.439° SSE
11 mins2025-07-08 16:21:37.585Z283.705° WNW2025-07-08 16:26:37.585Z244.503° WSW20.683°2025-07-08 16:32:37.585Z199.867° SSW
|